Weather History for KHYA - March, 2013

Change the Weather History Date:

Monday, March 4, 2013

  Actual Average Record
Temperature  
Mean Temperature 38 °F -  
Max Temperature 42 °F 41 °F 64 °F (1991)
Min Temperature 33 °F 26 °F 2 °F (1950)
Degree Days  
Heating Degree Days 28    
Moisture  
Dew Point 26 °F    
Average Humidity 67    
Maximum Humidity 92    
Minimum Humidity 45    
Precipitation  
Precipitation 0.00 in - - ()
Sea Level Pressure  
Sea Level Pressure 29.59 in    
Wind  
Wind Speed 9 mph (NW)    
Max Wind Speed 15 mph    
Max Gust Speed 26 mph    
Visibility 10 miles    
Events Snow    
Averages and records for this station are not official NWS values.
T = Trace of Precipitation, MM = Missing Value Source: NWS Daily Summary

Daily Weather History Graph

Daily Weather History Graph

Search for Another Location

Airport or City:

Trip Planner

Search our weather history database for the weather conditions in past years. The results will help you decide how hot, cold, wet, or windy it might be!

Date:

Astronomy

Mar. 04, 2013 Rise Set
Actual Time 6:10 AM EST 5:35 PM EST
Civil Twilight 5:42 AM EST 6:03 PM EST
Nautical Twilight 5:10 AM EST 6:35 PM EST
Astronomical Twilight 4:38 AM EST 7:07 PM EST
Moon 12:20 AM EST (3/4) 10:10 AM EST (3/4)
Length of Visible Light 12h 20m
Length of Day
11h 24m
Waning Gibbous, 52% of the Moon is Illuminated
Mar 4
Waning Gibbous
Mar 4
Last Quarter
Mar 11
New
Mar 19
First Quarter
Mar 27
Full

Hourly Weather History & Observations

Time (EST) Temp. Windchill Dew Point Humidity Pressure Visibility Wind Dir Wind Speed Gust Speed Precip Events Conditions
12:56 AM 34.0 °F 28.8 °F 30.9 °F 89% 29.57 in 4.0 mi WNW 5.8 mph - 0.00 in Snow Light Snow
1:52 AM 33.8 °F 28.6 °F 30.2 °F 87% 29.57 in 10.0 mi WNW 5.8 mph - 0.00 in   Overcast
1:56 AM 33.1 °F 27.7 °F 30.9 °F 92% 29.57 in 10.0 mi WNW 5.8 mph - 0.00 in   Overcast
2:41 AM 33.8 °F 28.6 °F 30.2 °F 87% 29.56 in 10.0 mi WNW 5.8 mph - N/A   Overcast
2:56 AM 34.0 °F 27.2 °F 28.9 °F 82% 29.57 in 10.0 mi WNW 8.1 mph - N/A   Overcast
4:56 AM 33.1 °F 26.9 °F 26.1 °F 75% 29.59 in 10.0 mi WNW 6.9 mph - N/A   Clear
5:56 AM 33.1 °F 26.9 °F 25.0 °F 72% 29.59 in 10.0 mi West 6.9 mph - N/A   Clear
7:56 AM 33.1 °F 24.9 °F 23.0 °F 66% 29.60 in 10.0 mi WNW 10.4 mph 21.9 mph N/A   Clear
8:56 AM 36.0 °F 27.5 °F 23.0 °F 59% 29.59 in 10.0 mi NW 12.7 mph 23.0 mph N/A   Clear
9:56 AM 37.9 °F 29.2 °F 21.9 °F 53% 29.58 in 10.0 mi NW 15.0 mph 21.9 mph N/A   Clear
10:56 AM 39.0 °F 31.4 °F 21.9 °F 50% 29.57 in 10.0 mi NNW 12.7 mph 23.0 mph N/A   Clear
11:56 AM 41.0 °F 33.5 °F 21.9 °F 47% 29.56 in 10.0 mi NNW 13.8 mph 20.7 mph N/A   Clear
12:56 PM 42.1 °F 36.1 °F 23.0 °F 47% 29.54 in 10.0 mi NW 10.4 mph 21.9 mph N/A   Overcast
1:56 PM 42.1 °F 36.6 °F 21.9 °F 45% 29.55 in 10.0 mi NW 9.2 mph 20.7 mph N/A   Mostly Cloudy
2:56 PM 42.1 °F 35.2 °F 21.9 °F 45% 29.55 in 10.0 mi WNW 12.7 mph 20.7 mph N/A   Mostly Cloudy
3:56 PM 39.9 °F 33.9 °F 25.0 °F 55% 29.56 in 10.0 mi NNW 9.2 mph 20.7 mph N/A   Overcast
4:56 PM 39.9 °F 35.1 °F 24.1 °F 53% 29.57 in 10.0 mi WNW 6.9 mph - N/A   Overcast
5:56 PM 39.9 °F 32.9 °F 26.1 °F 58% 29.59 in 10.0 mi NW 11.5 mph 18.4 mph N/A   Overcast
6:56 PM 37.9 °F 29.6 °F 27.0 °F 65% 29.62 in 10.0 mi NNW 13.8 mph 24.2 mph N/A   Overcast
7:56 PM 36.0 °F 28.5 °F 30.9 °F 82% 29.64 in 7.0 mi NW 10.4 mph 19.6 mph 0.00 in Snow Light Snow
8:27 PM 35.6 °F 27.1 °F 30.2 °F 81% 29.64 in 10.0 mi NW 12.7 mph 23.0 mph 0.00 in   Overcast
8:56 PM 35.1 °F 27.4 °F 28.0 °F 76% 29.65 in 10.0 mi NW 10.4 mph 26.5 mph 0.00 in   Mostly Cloudy
9:10 PM 35.6 °F 26.6 °F 26.6 °F 70% 29.64 in 10.0 mi NW 13.8 mph 21.9 mph N/A   Overcast
9:56 PM 36.0 °F 27.5 °F 27.0 °F 70% 29.65 in 10.0 mi NW 12.7 mph 20.7 mph N/A   Overcast
10:56 PM 36.0 °F 28.5 °F 27.0 °F 70% 29.66 in 10.0 mi NW 10.4 mph 19.6 mph N/A   Mostly Cloudy
11:56 PM 36.0 °F 27.1 °F 25.0 °F 64% 29.67 in 10.0 mi NW 13.8 mph 20.7 mph N/A   Overcast